Dunkirk, NY

3:33 AM EDT on September 24, 2017 (GMT -0400)
Chautauqua County-Dunkirk

Weather History for KDKK - March, 2014

Change the Weather History Date:

Sunday, March 16, 2014

  Actual Average Record
Temperature  
Mean Temperature 18 °F -  
Max Temperature 21 °F 44 °F 78 °F (1990)
Min Temperature 14 °F 26 °F 2 °F (1992)
Degree Days  
Heating Degree Days 48    
Moisture  
Dew Point 7 °F    
Average Humidity 64    
Maximum Humidity 74    
Minimum Humidity 56    
Precipitation  
Precipitation 0.00 in - - ()
Sea Level Pressure  
Sea Level Pressure 30.33 in    
Wind  
Wind Speed 8 mph (North)    
Max Wind Speed 16 mph    
Max Gust Speed 17 mph    
Visibility 10 miles    
Events      
Averages and records for this station are not official NWS values.
T = Trace of Precipitation, MM = Missing Value Source: NWS Daily Summary

Daily Weather History Graph

Daily Weather History Graph

Search for Another Location

Airport or City:

Trip Planner

Search our weather history database for the weather conditions in past years. The results will help you decide how hot, cold, wet, or windy it might be!

Date:

Astronomy

Mar. 16, 2014 Rise Set
Actual Time 7:27 AM EDT 7:24 PM EDT
Civil Twilight 6:59 AM EDT 7:52 PM EDT
Nautical Twilight 6:26 AM EDT 8:25 PM EDT
Astronomical Twilight 5:53 AM EDT 8:58 PM EDT
Moon 7:41 PM EDT (3/16) 7:09 AM EDT (3/16)
Length of Visible Light 12h 53m
Length of Day
11h 57m
Full, 100% of the Moon is Illuminated
Mar 16
Full
Mar 16
Full
Mar 23
Last Quarter
Mar 30
New
Apr 7
First Quarter

Hourly Weather History & Observations

Time (EDT) Temp. Windchill Dew Point Humidity Pressure Visibility Wind Dir Wind Speed Gust Speed Precip Events Conditions
12:53 AM 21.0 °F 13.4 °F 10.9 °F 65% 30.25 in 10.0 mi NW 5.8 mph - N/A   Clear
1:53 AM 19.9 °F 14.9 °F 10.9 °F 68% 30.26 in 10.0 mi West 3.5 mph - N/A   Clear
2:53 AM 19.0 °F 11.1 °F 9.0 °F 65% 30.27 in 10.0 mi NW 5.8 mph - N/A   Clear
3:53 AM 18.0 °F 7.7 °F 7.0 °F 62% 30.27 in 10.0 mi NW 8.1 mph - N/A   Clear
4:53 AM 17.1 °F 6.6 °F 8.1 °F 68% 30.30 in 10.0 mi NW 8.1 mph - N/A   Clear
5:53 AM 16.0 °F 6.3 °F 9.0 °F 74% 30.32 in 10.0 mi NW 6.9 mph - N/A   Partly Cloudy
6:16 AM 16.0 °F 4.4 °F 9.0 °F 74% 30.29 in 10.0 mi NW 9.2 mph - N/A   Mostly Cloudy
6:41 AM 16.0 °F 5.3 °F 8.1 °F 71% 30.29 in 10.0 mi NW 8.1 mph - N/A   Scattered Clouds
6:53 AM 16.0 °F 5.3 °F 8.1 °F 71% 30.32 in 10.0 mi NNW 8.1 mph - N/A   Partly Cloudy
7:37 AM 16.0 °F 8.8 °F 9.0 °F 74% 30.30 in 10.0 mi NNW 4.6 mph - N/A   Mostly Cloudy
7:53 AM 16.0 °F 4.4 °F 9.0 °F 74% 30.35 in 10.0 mi NNW 9.2 mph - N/A   Overcast
8:53 AM 16.0 °F 2.3 °F 6.1 °F 65% 30.39 in 10.0 mi NNE 12.7 mph - N/A   Overcast
9:53 AM 17.1 °F 3.0 °F 7.0 °F 65% 30.40 in 10.0 mi North 13.8 mph - N/A   Overcast
10:48 AM 17.6 °F 3.2 °F 6.8 °F 63% 30.38 in 10.0 mi NNE 15.0 mph - N/A   Overcast
10:53 AM 18.0 °F 3.1 °F 8.1 °F 65% 30.41 in 10.0 mi NNE 16.1 mph - N/A   Overcast
11:53 AM 18.0 °F 6.1 °F 7.0 °F 62% 30.42 in 10.0 mi NNE 10.4 mph - N/A   Mostly Cloudy
12:07 PM 17.1 °F 3.6 °F 6.1 °F 62% 30.37 in 10.0 mi North 12.7 mph - N/A   Scattered Clouds
12:53 PM 18.0 °F 5.4 °F 6.1 °F 60% 30.42 in 10.0 mi NNE 11.5 mph - N/A   Scattered Clouds
1:14 PM 17.1 °F 5.8 °F 6.1 °F 62% 30.37 in 10.0 mi NNE 9.2 mph - N/A   Mostly Cloudy
1:25 PM 17.1 °F 4.3 °F 6.1 °F 62% 30.38 in 10.0 mi North 11.5 mph - N/A   Scattered Clouds
1:53 PM 18.0 °F 5.4 °F 8.1 °F 65% 30.42 in 10.0 mi North 11.5 mph 17.3 mph N/A   Partly Cloudy
2:53 PM 18.0 °F 8.7 °F 7.0 °F 62% 30.40 in 10.0 mi Variable 6.9 mph - N/A   Clear
3:53 PM 19.0 °F 7.5 °F 7.0 °F 59% 30.37 in 10.0 mi North 10.4 mph - N/A   Clear
4:53 PM 19.0 °F 6.8 °F 6.1 °F 57% 30.33 in 10.0 mi North 11.5 mph - N/A   Clear
5:53 PM 18.0 °F 6.1 °F 6.1 °F 60% 30.32 in 10.0 mi North 10.4 mph - N/A   Clear
6:53 PM 17.1 °F 6.6 °F 3.9 °F 56% 30.31 in 10.0 mi NNE 8.1 mph - N/A   Clear
7:53 PM 16.0 °F 3.6 °F 3.9 °F 59% 30.30 in 10.0 mi NNE 10.4 mph - N/A   Clear
8:53 PM 16.0 °F 4.4 °F 3.0 °F 57% 30.30 in 10.0 mi NE 9.2 mph - N/A   Clear
9:53 PM 15.1 °F 5.2 °F 3.0 °F 59% 30.29 in 10.0 mi NE 6.9 mph - N/A   Clear
10:53 PM 14.0 °F 2.0 °F 3.9 °F 64% 30.28 in 10.0 mi NNE 9.2 mph - N/A   Clear
11:53 PM 14.0 °F 1.2 °F 3.0 °F 62% 30.26 in 10.0 mi NE 10.4 mph - N/A   Clear